When you browse on this site, cookies collect data to enhance your experience and personalize the content and advertising you see.
Visit our Privacy Policy to learn more. By continuing to use the site, you agree to this use of cookies and data.
  • In Schweiz
  • Länderverzeichnis
  • Für 7 Tage
  • Wassertemperatur
  • Wetterkarte
  • Widgets
  • user-avatar
    Anmelden

    Stündliche Wetter Ayachcho

    Heute, 15 November, Freitag

    Zeit Temperatur Niederschläge Wind Luftdruck Luftfeuchtigkeit
    00:00 +12°C° 2.1 mm 8 m/S 735 mmHg 78%
    01:00 +12°C° 2.1 mm 8 m/S 735 mmHg 80%
    02:00 +11°C° 4.2 mm 7 m/S 735 mmHg 85%
    03:00 +11°C° 4.2 mm 6 m/S 736 mmHg 89%
    04:00 +10°C° 4.2 mm 6 m/S 736 mmHg 93%
    05:00 +9°C° 2.3 mm 5 m/S 737 mmHg 93%
    06:00 +10°C° 2.3 mm 4 m/S 737 mmHg 92%
    07:00 +10°C° 2.3 mm 3 m/S 737 mmHg 92%
    08:00 +10°C° 0.4 mm 3 m/S 737 mmHg 89%
    09:00 +12°C° 0.4 mm 2 m/S 738 mmHg 87%
    10:00 +13°C° 0.4 mm 2 m/S 738 mmHg 84%
    11:00 +12°C° 0.5 mm 3 m/S 738 mmHg 83%
    12:00 +12°C° 0.5 mm 4 m/S 738 mmHg 83%
    13:00 +12°C° 0.5 mm 5 m/S 738 mmHg 82%
    14:00 +10°C° 1 mm 5 m/S 738 mmHg 85%
    15:00 +10°C° 1 mm 5 m/S 738 mmHg 87%
    16:00 +9°C° 1 mm 5 m/S 738 mmHg 90%
    17:00 +9°C° 1 mm 5 m/S 738 mmHg 89%
    18:00 +9°C° 1 mm 5 m/S 738 mmHg 88%
    19:00 +9°C° 1 mm 5 m/S 738 mmHg 88%
    20:00 +9°C° 1 mm 6 m/S 739 mmHg 87%
    21:00 +10°C° 1 mm 6 m/S 739 mmHg 87%
    22:00 +10°C° 1 mm 7 m/S 740 mmHg 86%
    23:00 +10°C° 0.9 mm 6 m/S 740 mmHg 86%

    Morgen, 16 November, Samstag

    Zeit Temperatur Niederschläge Wind Luftdruck Luftfeuchtigkeit
    00:00 +10°C° 0.9 mm 5 m/S 741 mmHg 86%
    01:00 +10°C° 0.9 mm 4 m/S 741 mmHg 86%
    02:00 +10°C° 0.4 mm 3 m/S 741 mmHg 87%
    03:00 +10°C° 0.4 mm 2 m/S 742 mmHg 87%
    04:00 +9°C° 0.4 mm 2 m/S 742 mmHg 88%
    05:00 +9°C° 0.1 mm 2 m/S 742 mmHg 87%
    06:00 +9°C° 0.1 mm 3 m/S 742 mmHg 86%
    07:00 +9°C° 0.1 mm 3 m/S 742 mmHg 85%
    08:00 +10°C° 0 mm 3 m/S 743 mmHg 80%
    09:00 +12°C° 0 mm 2 m/S 743 mmHg 76%
    10:00 +13°C° 0 mm 1 m/S 743 mmHg 71%
    11:00 +13°C° 0 mm 2 m/S 743 mmHg 70%
    12:00 +13°C° 0 mm 2 m/S 742 mmHg 68%
    13:00 +13°C° 0 mm 2 m/S 742 mmHg 66%
    14:00 +13°C° 0.1 mm 2 m/S 741 mmHg 69%
    15:00 +12°C° 0.1 mm 2 m/S 741 mmHg 72%
    16:00 +12°C° 0.1 mm 2 m/S 740 mmHg 76%
    17:00 +10°C° 0.9 mm 2 m/S 739 mmHg 80%
    18:00 +10°C° 0.9 mm 2 m/S 739 mmHg 84%
    19:00 +9°C° 0.9 mm 2 m/S 738 mmHg 88%
    20:00 +9°C° 1 mm 3 m/S 738 mmHg 89%
    21:00 +8°C° 1 mm 4 m/S 737 mmHg 90%
    22:00 +8°C° 1 mm 4 m/S 736 mmHg 92%
    23:00 +8°C° 0.9 mm 5 m/S 736 mmHg 91%

    übermorgen, 17 November, Sonntag

    Zeit Temperatur Niederschläge Wind Luftdruck Luftfeuchtigkeit
    00:00 +8°C° 0.9 mm 6 m/S 735 mmHg 90%
    01:00 +8°C° 0.9 mm 7 m/S 734 mmHg 89%
    02:00 +7°C° 1.1 mm 8 m/S 734 mmHg 90%
    03:00 +7°C° 1.1 mm 9 m/S 734 mmHg 92%
    04:00 +7°C° 1.1 mm 11 m/S 734 mmHg 93%
    05:00 +7°C° 1.6 mm 9 m/S 734 mmHg 92%
    06:00 +7°C° 1.6 mm 8 m/S 735 mmHg 90%
    07:00 +7°C° 1.6 mm 6 m/S 735 mmHg 88%
    08:00 +8°C° 0 mm 6 m/S 736 mmHg 84%
    09:00 +9°C° 0 mm 7 m/S 737 mmHg 80%
    10:00 +10°C° 0 mm 7 m/S 737 mmHg 76%
    11:00 +10°C° 0.4 mm 7 m/S 738 mmHg 79%
    12:00 +10°C° 0.4 mm 7 m/S 739 mmHg 82%
    13:00 +9°C° 0.4 mm 8 m/S 739 mmHg 84%
    14:00 +9°C° 0.3 mm 8 m/S 739 mmHg 83%
    15:00 +9°C° 0.3 mm 7 m/S 740 mmHg 81%
    16:00 +9°C° 0.3 mm 7 m/S 740 mmHg 80%
    17:00 +9°C° 2.4 mm 7 m/S 740 mmHg 83%
    18:00 +9°C° 2.4 mm 7 m/S 740 mmHg 86%
    19:00 +8°C° 2.4 mm 7 m/S 741 mmHg 90%
    20:00 +8°C° 1.3 mm 6 m/S 741 mmHg 89%
    21:00 +9°C° 1.3 mm 5 m/S 741 mmHg 88%
    22:00 +9°C° 1.3 mm 5 m/S 742 mmHg 87%
    23:00 +10°C° 0.1 mm 4 m/S 742 mmHg 86%

    18 November, Montag

    Zeit Temperatur Niederschläge Wind Luftdruck Luftfeuchtigkeit
    00:00 +10°C° 0.1 mm 4 m/S 742 mmHg 84%
    01:00 +10°C° 0.1 mm 3 m/S 742 mmHg 83%
    02:00 +9°C° 0 mm 3 m/S 742 mmHg 83%
    03:00 +9°C° 0 mm 3 m/S 742 mmHg 82%
    04:00 +9°C° 0 mm 2 m/S 742 mmHg 82%
    05:00 +9°C° 0.2 mm 2 m/S 742 mmHg 83%
    06:00 +9°C° 0.2 mm 2 m/S 742 mmHg 84%
    07:00 +9°C° 0.2 mm 2 m/S 742 mmHg 85%
    08:00 +10°C° 0.3 mm 2 m/S 743 mmHg 85%
    09:00 +10°C° 0.3 mm 2 m/S 743 mmHg 84%
    10:00 +10°C° 0.3 mm 2 m/S 743 mmHg 84%
    11:00 +12°C° 0.3 mm 2 m/S 743 mmHg 83%
    12:00 +12°C° 0.3 mm 1 m/S 743 mmHg 82%
    13:00 +12°C° 0.3 mm 1 m/S 743 mmHg 82%
    14:00 +12°C° 0.3 mm 1 m/S 743 mmHg 83%
    15:00 +12°C° 0.3 mm 1 m/S 743 mmHg 84%
    16:00 +12°C° 0.3 mm 2 m/S 743 mmHg 86%
    17:00 +12°C° 0.1 mm 2 m/S 743 mmHg 87%
    18:00 +10°C° 0.1 mm 2 m/S 743 mmHg 87%
    19:00 +10°C° 0.1 mm 2 m/S 743 mmHg 88%
    20:00 +9°C° 0.1 mm 2 m/S 743 mmHg 87%
    21:00 +9°C° 0.1 mm 2 m/S 743 mmHg 86%
    22:00 +9°C° 0.1 mm 2 m/S 743 mmHg 86%
    23:00 +9°C° 0.2 mm 2 m/S 744 mmHg 85%

    19 November, Dienstag

    Zeit Temperatur Niederschläge Wind Luftdruck Luftfeuchtigkeit
    00:00 +9°C° 0.2 mm 2 m/S 744 mmHg 85%
    01:00 +9°C° 0.2 mm 3 m/S 744 mmHg 84%
    02:00 +9°C° 0.1 mm 3 m/S 744 mmHg 85%
    03:00 +8°C° 0.1 mm 3 m/S 744 mmHg 86%
    04:00 +8°C° 0.1 mm 3 m/S 744 mmHg 86%
    05:00 +7°C° 0 mm 4 m/S 744 mmHg 87%
    06:00 +7°C° 0 mm 4 m/S 745 mmHg 87%
    07:00 +7°C° 0 mm 4 m/S 745 mmHg 88%
    08:00 +8°C° 0 mm 4 m/S 745 mmHg 85%
    09:00 +10°C° 0 mm 3 m/S 746 mmHg 83%
    10:00 +11°C° 0 mm 3 m/S 747 mmHg 80%
    11:00 +11°C° 0 mm 3 m/S 747 mmHg 75%
    12:00 +12°C° 0 mm 4 m/S 747 mmHg 70%
    13:00 +12°C° 0 mm 4 m/S 747 mmHg 65%
    14:00 +12°C° 0 mm 4 m/S 747 mmHg 66%
    15:00 +12°C° 0 mm 4 m/S 747 mmHg 67%
    16:00 +11°C° 0 mm 4 m/S 747 mmHg 69%
    17:00 +10°C° 0.1 mm 4 m/S 747 mmHg 72%
    18:00 +10°C° 0.1 mm 3 m/S 747 mmHg 75%
    19:00 +9°C° 0.1 mm 3 m/S 747 mmHg 78%
    20:00 +9°C° 0.3 mm 3 m/S 747 mmHg 80%
    21:00 +9°C° 0.3 mm 3 m/S 747 mmHg 81%
    22:00 +10°C° 0.3 mm 3 m/S 748 mmHg 82%
    23:00 +10°C° 0.3 mm 3 m/S 748 mmHg 83%

    20 November, Mittwoch

    Zeit Temperatur Niederschläge Wind Luftdruck Luftfeuchtigkeit
    00:00 +10°C° 0.3 mm 3 m/S 748 mmHg 85%
    01:00 +10°C° 0.3 mm 3 m/S 748 mmHg 86%
    02:00 +10°C° 0.2 mm 3 m/S 747 mmHg 85%
    03:00 +10°C° 0.2 mm 3 m/S 747 mmHg 84%
    04:00 +10°C° 0.2 mm 3 m/S 747 mmHg 83%
    05:00 +10°C° 0.4 mm 3 m/S 747 mmHg 84%
    06:00 +10°C° 0.4 mm 3 m/S 747 mmHg 86%
    07:00 +11°C° 0.4 mm 4 m/S 747 mmHg 88%
    08:00 +11°C° 1.4 mm 4 m/S 747 mmHg 89%
    09:00 +10°C° 1.4 mm 5 m/S 747 mmHg 90%
    10:00 +10°C° 1.4 mm 5 m/S 748 mmHg 91%
    11:00 +12°C° 0.6 mm 5 m/S 747 mmHg 89%
    12:00 +11°C° 0.6 mm 6 m/S 747 mmHg 87%
    13:00 +13°C° 0.6 mm 6 m/S 747 mmHg 85%
    14:00 +13°C° 1 mm 5 m/S 747 mmHg 86%
    15:00 +12°C° 1 mm 5 m/S 746 mmHg 88%
    16:00 +12°C° 1 mm 5 m/S 746 mmHg 90%
    17:00 +12°C° 1.1 mm 5 m/S 746 mmHg 91%
    18:00 +13°C° 1.1 mm 5 m/S 746 mmHg 91%
    19:00 +13°C° 1.1 mm 5 m/S 747 mmHg 92%
    20:00 +13°C° 0.9 mm 5 m/S 747 mmHg 92%
    21:00 +13°C° 0.9 mm 5 m/S 747 mmHg 91%
    22:00 +13°C° 0.9 mm 5 m/S 747 mmHg 91%
    23:00 +13°C° 0.3 mm 5 m/S 747 mmHg 91%
    Mehr zeigen